Tracking 29932 objects as of 4-Dec-2024
HD Live streaming from Space Station
objects crossing your sky now

XSS 10

Track XSS 10 now!
10-day predictions
XSS 10 is classified as:


NORAD ID: 27664
Int'l Code: 2003-005B
Perigee: 507.1 km
Apogee: 724.8 km
Inclination: 39.7 °
Period: 96.9 minutes
Semi major axis: 6986 km
RCS: 0.183 m2 (medium)
Launch date: January 29, 2003
Source: United States (US)
Launch site: AIR FORCE EASTERN TEST RANGE (AFETR)
Your satellite tracking list
Your tracking list is empty




NASA's NSSDC Master Catalog

Two Line Element Set (TLE):
1 27664U 03005B   24338.74104932  .00004380  00000-0  40372-3 0  9997
2 27664  39.7478 342.5817 0155826  71.9240 289.8450 14.86514861179103
Source of the keplerian elements: AFSPC